カタログに戻る

CZ-4 DEB

運用中SSO
NORAD 27688·DEBRIS·🇨🇳 China

打ち上げ Oct 14, 1999 から Taiyuan Satellite Launch Center

Loading…

次のパス (今後24時間)

TLE

最新Source: Space-Track

元期: Sep 12, 2026, 22:46 UTC

1 27688U 99057MU  26255.94883009  .00000918  00000-0  22363-3 0  9999
2 27688  98.4917 322.4914 0079349 338.6110 196.1129 14.53356077739942

AllMySatでCZ-4 DEBをリアルタイム追跡

Download on the App Store